Погода в Гари

Погода в Гари : погода сейчас, прогноз погоды и архив. Всё, что Вы хотите узнать о погоде в Гари!

Поиск расширенной информации на нашем сайте:

Другие новости

Новости СМИ2

Главная страница сайта

Новости сайта

03.07.2017

Напоминаем, что на нашем специализированном сайте Метеоцентр.Азия вы можете получить высокодетализированные автоматические прогнозы погоды по пунктам России, СНГ и мира в авиационном формате (включающие направление и скорость ветра, видимость, явления погоды, количество и форму облачности, нижнюю и верхнюю границу облачности).


Погода в Гари - сегодня

Время (UTC), дата Ветер
(°,м/с) 
Видим.   Явления Облачность Т
(°С)
Тd
(°С)
f(%) Тe
(°С)
Pmin
(гПа)
dP
(гПа)
Po
(мм)
O2
(г/м3)
Тmin Tmax R s Состояние
почвы
09 23.05.18 270 (З) 3{10}  20000 м    6/0 верхняя 
[Ci]
+15.9 -4.4 24 +16  1024.2  -2  756  288           
12 23.05.18 210 (ЮЗ) 20000 м    8/0 средняя 
[Ac trans]
+17.3 -3.6 24 +18  1020.7  -3.3  754  286           
18 23.05.18 160 (Ю) 10 км    9/0 средняя 
[Ac As]
+15.4 -2.4 29 +15  1012.8  -3.8  748  286           
21 23.05.18 180 (Ю) 10 км    6/0 средняя 
[Ac trans]
+14.9 -0.7 34 +15  1010.1  -2.6  746  285           
00 24.05.18 220 (ЮЗ) 20000 м    8/3 600 м кучево-дожд., средняя 
[Cb calv|Ac und]
+14.7 +4.1 49 +15  1007.9  -2.1  744  284           
03 24.05.18 230 (ЮЗ) 20000 м    9/4 600 м кучево-дожд., средняя 
[Cb calv|Ac und]
+16.3 +6.8 53 +17  1006.6  -1.2  743  282  +14.7        влажная 
06 24.05.18 350 (С) 4{10}  20000 м    9/9 300 м кучево-дожд. 
[Cb calv]
+19.1 +8.5 50 +20  1005.1  -1.4  742  278           
18 24.05.18 360 (С) 4{11}  10 км    4/0 средняя 
[Ac trans]
+7.8 -4.3 42 +7  1014.2  1.7  749  294           
21 24.05.18 350 (С) н/о    н/о 
-3    0.6  749  302           
00 25.05.18 340 (С) 20000 м    6/0 средняя 
[Ac trans]
+4.4 -4.5 52 +3  1015.7  0.4  750  298           
03 25.05.18 350 (С) 20000 м    6/0 средняя 
[Ac trans]
+6.6 -2.8 51 +4  1015.5  750  295  +4.4        влажная 
06 25.05.18 330 (СЗ) 6{11}  20000 м    9/9 600 м 
[Cu med, cong]
+10.1 -4.1 37 +9  1014.9  -0.5  749  292           
12 25.05.18 350 (С) 6{11}  20000 м    9/4 600 м средняя 
[Cu med, cong|Ac trans]
+8.2 -5.8 36 +6  1016.3  1.2  750  294           
18 25.05.18 350 (С) 6{13}  10 км    8/6 600 м средняя 
[Cu med, cong|Ac lent]
+3.8 -3.1 61 +1  1019.5  752  299           
21 25.05.18 360 (С) 6{13}  10 км    6/6 600 м средняя 
[Ac trans]
+1.9 -3.8 66 -1  1020.5  0.9  753  302           
03 26.05.18 360 (С) 6{11}  20000 м    4/0 средняя 
[Ac trans]
+3.2 -4.3 58 1022.6  1.3  755  301  +1        влажная 
12 26.05.18 350 (С) 5{12}  20000 м    8/3 600 м средняя 
[Sc|Ac und]
+9.2 -7.6 30 +8  1021.2  -0.6  754  295           
18 26.05.18 160 (Ю) 10 км    3/0 средняя 
[Ac und]
+6.8 -5.2 42 +7  1019.6  -0.7  753  296           
21 26.05.18 150 (ЮВ) 10 км    6/0 средняя 
[Ac und]
+4.7 -5.2 49 +3  1017.8  -1.8  751  298           
00 27.05.18 150 (ЮВ) 20000 м    8/0 средняя 
[Ac und]
+4 -4.7 53 +2  1015.1  -2.8  749  298           
03 27.05.18 170 (Ю) 20000 м    4/0 средняя 
[Ac und]
+8.8 -1.7 48 +7  1011.1  -3.6  746  292  +3.9        влажная 
06 27.05.18 200 (Ю) 5{10}  20000 м    9/6 600 м кучево-дожд., средняя 
[Cb calv|Ac As]
+11 +1.5 52 +10  1008.5  -2.5  745  288           
21 27.05.18 300 (СЗ) 10 км  {ливн. осадки}  6/6 600 м кучево-дожд. 
[Cb calv]
+7 +4 81 +7  1003.1  -0.8  740  290           
00 28.05.18 340 (С) 20000 м  {ливн. осадки}  6/0 средняя 
[Ac trans]
+2.1 -0.4 84 1003.7  0.3  741  296           
03 28.05.18 320 (СЗ) 20000 м  {ливн. осадки}  3/3 600 м кучево-дожд. 
[Cb calv]
+6.3 -0.2 63 +4  1004.4  0.9  741  292  +2.1      влажная 
Время (UTC), дата Ветер
(°,м/с) 
Видим.   Явления Облачность Т
(°С)
Тd
(°С)
f(%) Тe
(°С)
Pmin
(гПа)
dP
(гПа)
Po
(мм)
O2
(г/м3)
Тmin Tmax R s Состояние
почвы

Для получения пояснительной информации подведите курсор к названию столбца.

ПОГОДА в Гари - архив

Всё, что Вы хотите узнать о погоде в Гари - удобно и подробно!

Выберите нужную дату (начиная с 1 января 2015* года) и нажмите кнопку "Найти".
Будут отображены архивные сводки погоды по пункту Гари, начиная с указанной даты.


Отображать данные в формате CSV (для использования в таблицах Excel)


Внимание! Наш архив погоды предназначен исключительно для личного некоммерческого использования в познавательных целях. Если Вам необходимы официальные справки о состоянии погоды (для производственных, юридических, коммерческих и т.п. целей), обращайтесь в органы Росгидромета.

*Примечание: данная дата относится к архиву по метеостанциям СССР (Россия, СНГ, Балтия).
Архив по метеостанциям Зарубежной Европы и Азии (кроме Китая) хранится 10 дней, по другим регионам земного шара (Китай, Африка, Америка, Австралия, Океания) - 1 день.

Гари - район местоположения метеостанции


Название, широта, долгота, высота метеостанции:
Гари 59.4°ш. 62.3°д. 131 м над ур. моря [Российская Федерация]

Дополнительная информация

В oтличие oт бoльшинства пoгoдных сайтoв мы публикуем пoдрoбную метеoинфoрмацию в детальнoм прoфессиoнальнoм фoрмате.

Характеристики температуры и влажнoсти вoздуха измеряются на высoте 2 м в тени вдали oт зданий и деревьев.
Скoрoсть ветра измеряется на высoте 10 м (на урoвне рoста челoвека скoрoсть ветра ниже в 1.5-2 раза). Если метеoстанция нахoдится в гoрoде или в лесу, тo скoрoсть ветра занижена на 2-4 м/с пo сравнению с oткрытым местoм. Скoрoсть ветра над акватoриями крупных рек и oзёр, а также на вершинах хoлмoв на 2-5 м/с выше, чем в oбычных услoвиях.
Атмoсфернoе давление в разных тoчках местнoсти мoжет значительнo oтличаться oт давления на метеoстанции, в зависимoсти oт услoвий рельефа (при пoдъёме на 10 м давление пoнижается примернo на 1 мм рт.ст.).